Weather History for KMHE - May, 2013

Change the Weather History Date:

Wednesday, May 15, 2013

  Actual Average Record
Temperature  
Mean Temperature 67 °F 59 °F  
Max Temperature 81 °F 71 °F 100 °F (1931)
Min Temperature 53 °F 48 °F 25 °F (1959)
Degree Days  
Heating Degree Days 0 7  
Month to date heating degree days 185 131  
Since 1 July heating degree days 7549 7131  
Cooling Degree Days 2 1  
Month to date cooling degree days 21 12  
Year to date cooling degree days 21 14  
Growing Degree Days 18 (Base 50)    
Moisture  
Dew Point 45 °F    
Average Humidity 47    
Maximum Humidity 72    
Minimum Humidity 26    
Precipitation  
Precipitation T in 0.07 in 1.25 in (1916)
Month to date precipitation 1.19 1.15  
Year to date precipitation 6.22 4.95  
Snow  
Snow 0.00 in - T in (1916)
Month to date snowfall 0.0  
Since 1 July snowfall 54.5  
Snow Depth 0.00 in    
Sea Level Pressure  
Sea Level Pressure 29.90 in    
Wind  
Wind Speed 5 mph (NE)    
Max Wind Speed 15 mph    
Max Gust Speed 18 mph    
Visibility 10 miles    
Events      
T = Trace of Precipitation, MM = Missing Value Source: NWS Daily Summary

Daily Weather History Graph

Daily Weather History Graph

Search for Another Location

Airport or City:

Trip Planner

Search our weather history database for the weather conditions in past years. The results will help you decide how hot, cold, wet, or windy it might be!

Date:

Astronomy

May. 15, 2013 Rise Set
Actual Time 6:06 AM CDT 8:51 PM CDT
Civil Twilight 5:33 AM CDT 9:24 PM CDT
Nautical Twilight 4:51 AM CDT 10:06 PM CDT
Astronomical Twilight 4:02 AM CDT 10:55 PM CDT
Moon 10:45 AM CDT (5/15) 12:37 AM CDT (5/15)
Length of Visible Light 15h 51m
Length of Day
14h 44m
Waxing Crescent, 27% of the Moon is Illuminated
May 15
Waxing Crescent
May 17
First Quarter
May 24
Full
May 31
Last Quarter
Jun 8
New

Hourly Weather History & Observations

Time (CDT) Temp. Dew Point Humidity Pressure Visibility Wind Dir Wind Speed Gust Speed Precip Events Conditions
12:53 AM 57.9 °F 43.0 °F 58% 29.84 in 10.0 mi North 6.9 mph - N/A   Clear
1:53 AM 57.0 °F 43.0 °F 59% 29.86 in 10.0 mi Calm Calm - N/A   Clear
2:53 AM 54.0 °F 44.1 °F 69% 29.86 in 10.0 mi Calm Calm - N/A   Clear
3:53 AM 55.0 °F 44.1 °F 67% 29.83 in 10.0 mi NNE 6.9 mph - N/A   Scattered Clouds
4:53 AM 55.9 °F 45.0 °F 67% 29.91 in 10.0 mi NNW 12.7 mph - N/A   Partly Cloudy
5:53 AM 57.0 °F 45.0 °F 64% 29.93 in 10.0 mi Calm Calm - N/A   Partly Cloudy
6:53 AM 55.9 °F 46.0 °F 69% 29.95 in 10.0 mi SSE 4.6 mph - N/A   Clear
7:53 AM 57.0 °F 48.0 °F 72% 29.96 in 10.0 mi South 3.5 mph - 0.00 in   Scattered Clouds
8:53 AM 62.1 °F 46.9 °F 58% 29.97 in 10.0 mi Calm Calm - N/A   Clear
9:53 AM 68.0 °F 48.0 °F 49% 29.96 in 10.0 mi SSE 6.9 mph - N/A   Clear
10:53 AM 72.0 °F 45.0 °F 38% 29.94 in 10.0 mi Variable 5.8 mph - N/A   Clear
11:53 AM 73.9 °F 46.9 °F 38% 29.92 in 10.0 mi South 9.2 mph - N/A   Partly Cloudy
12:53 PM 75.9 °F 45.0 °F 33% 29.92 in 10.0 mi Variable 4.6 mph - N/A   Clear
1:53 PM 79.0 °F 44.1 °F 29% 29.91 in 10.0 mi NW 5.8 mph - N/A   Mostly Cloudy
2:53 PM 80.1 °F 45.0 °F 29% 29.91 in 10.0 mi North 9.2 mph - N/A   Scattered Clouds
3:53 PM 80.1 °F 44.1 °F 28% 29.89 in 10.0 mi North 8.1 mph - N/A   Clear
4:53 PM 81.0 °F 43.0 °F 26% 29.87 in 10.0 mi NE 8.1 mph - N/A   Clear
5:53 PM 80.1 °F 44.1 °F 28% 29.86 in 10.0 mi NNE 9.2 mph - N/A   Clear
6:53 PM 79.0 °F 44.1 °F 29% 29.86 in 10.0 mi NNE 8.1 mph - N/A   Clear
7:53 PM 75.0 °F 45.0 °F 34% 29.86 in 10.0 mi NE 9.2 mph - N/A   Clear
8:53 PM 69.1 °F 45.0 °F 42% 29.87 in 10.0 mi NE 5.8 mph - N/A   Clear
9:53 PM 66.0 °F 45.0 °F 47% 29.87 in 10.0 mi ENE 4.6 mph - N/A   Clear
10:53 PM 64.9 °F 45.0 °F 48% 29.88 in 10.0 mi Calm Calm - N/A   Clear
11:53 PM 62.1 °F 45.0 °F 53% 29.88 in 10.0 mi Calm Calm - N/A   Clear